TimeCDT,TemperatureF,Dew PointF,Humidity,Sea Level PressureIn,VisibilityMPH,Wind Direction,Wind SpeedMPH,Gust SpeedMPH,PrecipitationIn,Events,Conditions,WindDirDegrees,DateUTC
12:53 AM,39.9,23.0,51,30.17,7.0,West,5.8,-,N/A,,Clear,280,2013-10-06 05:53:00
1:53 AM,39.9,23.0,51,30.17,10.0,NW,6.9,-,N/A,,Clear,310,2013-10-06 06:53:00
2:53 AM,37.9,23.0,55,30.17,10.0,NNW,9.2,-,N/A,,Clear,330,2013-10-06 07:53:00
3:53 AM,37.9,21.0,51,30.17,10.0,North,6.9,-,N/A,,Clear,10,2013-10-06 08:53:00
4:53 AM,37.0,21.0,52,30.17,10.0,North,3.5,-,N/A,,Clear,350,2013-10-06 09:53:00
5:53 AM,34.0,21.9,61,30.19,10.0,NW,5.8,-,N/A,,Clear,320,2013-10-06 10:53:00
6:53 AM,35.1,21.0,57,30.21,10.0,WNW,4.6,-,N/A,,Clear,300,2013-10-06 11:53:00
7:53 AM,35.1,21.9,59,30.24,10.0,NW,8.1,-,N/A,,Clear,310,2013-10-06 12:53:00
8:53 AM,41.0,23.0,49,30.24,10.0,Calm,Calm,-,N/A,,Clear,0,2013-10-06 13:53:00
9:53 AM,51.1,21.9,32,30.26,10.0,West,3.5,-,N/A,,Clear,260,2013-10-06 14:53:00
10:53 AM,57.9,16.0,19,30.25,10.0,Variable,3.5,-,N/A,,Clear,0,2013-10-06 15:53:00
11:53 AM,62.1,17.1,18,30.23,10.0,Variable,5.8,-,N/A,,Clear,0,2013-10-06 16:53:00
12:53 PM,66.9,18.0,15,30.21,10.0,West,10.4,-,N/A,,Clear,280,2013-10-06 17:53:00
1:53 PM,70.0,18.0,14,30.17,10.0,NNW,10.4,17.3,N/A,,Clear,340,2013-10-06 18:53:00
2:53 PM,72.0,19.0,13,30.14,10.0,NW,12.7,20.7,N/A,,Clear,320,2013-10-06 19:53:00
3:53 PM,73.0,19.0,13,30.12,10.0,NNW,16.1,20.7,N/A,,Clear,330,2013-10-06 20:53:00
4:53 PM,73.0,18.0,12,30.12,10.0,NW,8.1,-,N/A,,Clear,320,2013-10-06 21:53:00
5:53 PM,75.0,21.9,14,30.12,10.0,NNW,11.5,-,N/A,,Clear,340,2013-10-06 22:53:00
6:53 PM,72.0,23.0,16,30.13,10.0,North,9.2,-,N/A,,Clear,360,2013-10-06 23:53:00
7:53 PM,66.0,25.0,21,30.16,10.0,NNE,4.6,-,N/A,,Clear,20,2013-10-07 00:53:00
8:53 PM,61.0,26.1,26,30.17,10.0,North,4.6,-,N/A,,Clear,10,2013-10-07 01:53:00
9:53 PM,51.1,28.0,41,30.19,8.0,West,9.2,-,N/A,,Clear,270,2013-10-07 02:53:00
10:53 PM,51.1,30.0,44,30.18,10.0,WNW,6.9,-,N/A,,Clear,290,2013-10-07 03:53:00
11:53 PM,50.0,28.9,44,30.18,10.0,WNW,5.8,-,N/A,,Clear,300,2013-10-07 04:53:00